Weather History for Taunton, MA

Change the Weather History Date:

Wednesday, August 7, 2013

  Actual Average Record
Temperature  
Mean Temperature 64 °F -  
Max Temperature 79 °F 82 °F 93 °F (2001)
Min Temperature 50 °F 59 °F 40 °F (1972)
Growing Degree Days 14 (Base 50)    
Moisture  
Dew Point 53 °F    
Average Humidity 81    
Maximum Humidity 100    
Minimum Humidity 36    
Precipitation  
Precipitation 0.00 in - - ()
Sea Level Pressure  
Sea Level Pressure 30.17 in    
Wind  
Wind Speed 1 mph (SSE)    
Max Wind Speed 9 mph    
Max Gust Speed -    
Visibility 6 miles    
Events Fog    
Averages and records for this station are not official NWS values.
T = Trace of Precipitation, MM = Missing Value Source: NWS Daily Summary

Daily Weather History Graph

Daily Weather History Graph

Search for Another Location

Airport:

Trip Planner

Search our weather history database for the weather conditions in past years. The results will help you decide how hot, cold, wet, or windy it might be!

Date:

Astronomy

Aug. 07, 2013 Rise Set
Actual Time 5:44 AM EDT 7:54 PM EDT
Civil Twilight 5:13 AM EDT 8:25 PM EDT
Nautical Twilight 4:35 AM EDT 9:03 PM EDT
Astronomical Twilight 3:53 AM EDT 9:44 PM EDT
Moon 6:31 AM EDT (8/7) 7:58 PM EDT (8/7)
Length of Visible Light 15h 12m
Length of Day
14h 10m
New Moon, 1% of the Moon is Illuminated
Aug 7
New Moon
Aug 14
First Quarter
Aug 20
Full
Aug 28
Last Quarter
Sep 5
New

Hourly Weather History & Observations

Time (EDT) Temp. Dew Point Humidity Pressure Visibility Wind Dir Wind Speed Gust Speed Precip Events Conditions
12:52 AM 52.0 °F 51.1 °F 97% 30.15 in 10.0 mi Calm Calm - N/A   Clear
1:09 AM 52.0 °F 51.1 °F 97% 30.15 in 1.2 mi Calm Calm - N/A   Clear
1:19 AM 52.0 °F 50.0 °F 93% 30.16 in 0.5 mi Calm Calm - N/A Fog Fog
1:52 AM 52.0 °F 51.1 °F 97% 30.16 in 0.5 mi Calm Calm - N/A Fog Fog
2:17 AM 51.1 °F 48.9 °F 92% 30.16 in 1.2 mi Calm Calm - N/A   Clear
2:41 AM 51.1 °F 48.9 °F 92% 30.17 in 0.5 mi Calm Calm - N/A Fog Fog
2:52 AM 51.1 °F 48.9 °F 92% 30.17 in 1.0 mi Calm Calm - N/A   Clear
2:55 AM 51.1 °F 48.9 °F 92% 30.17 in 2.0 mi Calm Calm - N/A   Clear
3:02 AM 50.0 °F 48.9 °F 96% 30.17 in 10.0 mi Calm Calm - N/A   Partly Cloudy
3:14 AM 51.1 °F 48.9 °F 92% 30.17 in 1.8 mi Calm Calm - N/A   Partly Cloudy
3:23 AM 51.1 °F 48.9 °F 92% 30.17 in 3.0 mi Calm Calm - N/A   Scattered Clouds
3:33 AM 52.0 °F 50.0 °F 93% 30.17 in 10.0 mi Calm Calm - N/A   Mostly Cloudy
3:52 AM 54.0 °F 53.1 °F 97% 30.17 in 10.0 mi Calm Calm - N/A   Overcast
4:09 AM 55.0 °F 54.0 °F 96% 30.18 in 1.2 mi Calm Calm - N/A   Overcast
4:16 AM 55.0 °F 54.0 °F 96% 30.18 in 0.2 mi Calm Calm - N/A Fog Fog
4:52 AM 55.0 °F 54.0 °F 96% 30.18 in 0.2 mi Calm Calm - N/A Fog Fog
5:03 AM 55.0 °F 54.0 °F 96% 30.18 in 1.5 mi Calm Calm - N/A   Overcast
5:06 AM 55.0 °F 54.0 °F 96% 30.18 in 3.0 mi Calm Calm - N/A   Overcast
5:20 AM 55.9 °F 54.0 °F 93% 30.19 in 1.5 mi Calm Calm - N/A   Overcast
5:23 AM 55.9 °F 55.0 °F 97% 30.19 in 0.8 mi Calm Calm - N/A   Overcast
5:52 AM 55.0 °F 55.0 °F 100% 30.19 in 0.2 mi Calm Calm - N/A Fog Fog
6:52 AM 57.0 °F 57.0 °F 100% 30.19 in 0.2 mi Calm Calm - N/A Fog Fog
7:52 AM 60.1 °F 60.1 °F 100% 30.19 in 0.2 mi Calm Calm - N/A Fog Fog
8:46 AM 64.4 °F 64.4 °F 100% 30.19 in 1.5 mi Calm Calm - N/A   Mostly Cloudy
8:48 AM 64.4 °F 64.4 °F 100% 30.19 in 3.0 mi Calm Calm - N/A   Mostly Cloudy
8:52 AM 64.9 °F 64.0 °F 97% 30.19 in 9.0 mi Calm Calm - N/A   Mostly Cloudy
9:00 AM 66.0 °F 63.0 °F 90% 30.19 in 10.0 mi Calm Calm - N/A   Scattered Clouds
9:52 AM 73.0 °F 57.0 °F 57% 30.19 in 10.0 mi South 4.6 mph - N/A   Clear
10:52 AM 75.0 °F 52.0 °F 44% 30.18 in 10.0 mi SSE 8.1 mph - N/A   Clear
11:52 AM 77.0 °F 52.0 °F 42% 30.17 in 10.0 mi SE 6.9 mph - N/A   Clear
12:52 PM 78.1 °F 48.9 °F 36% 30.17 in 10.0 mi South 5.8 mph - N/A   Clear
1:52 PM 79.0 °F 53.1 °F 40% 30.17 in 10.0 mi South 9.2 mph - N/A   Clear
2:52 PM 78.1 °F 53.1 °F 42% 30.17 in 10.0 mi South 9.2 mph - N/A   Clear
3:52 PM 77.0 °F 50.0 °F 39% 30.16 in 10.0 mi Variable 5.8 mph - N/A   Clear
4:52 PM 75.0 °F 50.0 °F 41% 30.16 in 10.0 mi South 8.1 mph - N/A   Clear
5:52 PM 73.9 °F 48.9 °F 41% 30.15 in 10.0 mi Variable 6.9 mph - N/A   Clear
6:52 PM 71.1 °F 54.0 °F 55% 30.14 in 10.0 mi South 6.9 mph - N/A   Clear
7:52 PM 66.9 °F 55.9 °F 68% 30.14 in 10.0 mi SSE 3.5 mph - N/A   Clear
8:52 PM 63.0 °F 53.1 °F 70% 30.15 in 10.0 mi SE 3.5 mph - N/A   Clear
9:52 PM 57.9 °F 54.0 °F 87% 30.15 in 10.0 mi SE 3.5 mph - N/A   Clear
10:52 PM 61.0 °F 54.0 °F 78% 30.14 in 10.0 mi South 3.5 mph - N/A   Partly Cloudy
11:52 PM 60.1 °F 55.0 °F 83% 30.15 in 10.0 mi Calm Calm - N/A   Clear